Regional Weather Roundup
Issued by NWS Sterling, VA

Home | Current Version | Previous Version | Graphics & Text | Print | Product List | Glossary On
Versions: 1 2 3 4 5 6 7 8 9 10 11 12 13 14 15 16 17 18 19 20 21 22 23 24 25 26 27 28 29 30 31 32 33 34 35 36 37 38 39 40 41 42 43 44 45 46 47 48 49 50
000
ASUS41 KLWX 180910
RWRLWX

REGIONAL WEATHER ROUNDUP
NATIONAL WEATHER SERVICE BALTIMORE MD/WASHINGTON DC
500 AM EDT SAT APR 18 2015

Note: "FAIR" indicates few or no clouds below 12,000 feet
with no significant weather and/or obstructions to visibility.
 TC=TEMPERATURE CELSIUS

 * =Non NWS site. Station does not report precipitation (e.g. rain,
    snow, etc.), thunder, or fog.

DCZ001-MDZ009-015-VAZ040>042-051-053>054-181000-
WASHINGTON METRO

CITY           SKY/WX    TMP DP  RH WIND       PRES   REMARKS
WASHINGTON NAT PTCLDY    61  56  83 N7        29.98S
DULLES         PTCLDY    56  52  86 NW5       29.99S
ANDREWS AFB    PTCLDY    56  53  89 N6        29.97S
FT BELVOIR     CLEAR     57  55  93 NW2       29.98S
QUANTICO       CLEAR     63  54  72 N7        29.98S
COLLEGE PARK*  PTCLDY    54  54 100 CALM      29.98S
LEESBURG*      CLEAR     54  54 100 NW3       30.01R
MANASSAS*      CLEAR     54  54 100 NW5       29.99S
GAITHERSBURG*  CLEAR     52  48  87 CALM      30.03R

$$

MDZ006>007-011-014-181000-
BALTIMORE METRO

CITY           SKY/WX    TMP DP  RH WIND       PRES   REMARKS
BWI AIRPORT    PTCLDY    55  53  93 W3        29.97S
MD SCIENCE CTR   N/A     64  50  60 MISG      29.97S
MARTIN STATE   CLEAR     54  54 100 CALM      29.98F
ANNAPOLIS      PTCLDY    57  55  93 N5        29.96S
FORT MEADE*    PTCLDY    52  50  93 CALM      30.00S

$$

MDZ012-015-019>023-181000-
MARYLAND EASTERN SHORE

CITY           SKY/WX    TMP DP  RH WIND       PRES   REMARKS
OCEAN CITY     FOG       55  55 100 CALM      29.96S VSB 1/4
SALISBURY      FOG       59  59 100 CALM      29.95S VSB 1/4
BAY BRIDGE AP*   N/A     55  55 100 CALM      29.97S FOG
CAMBRIDGE*     CLOUDY    57  55  94 CALM      29.96S VSB 1/2
EASTON*        FOG      N/A N/A N/A CALM      30.00S VSB 1/4

$$

MDZ017>025-181000-
SOUTHERN MARYLAND

CITY           SKY/WX    TMP DP  RH WIND       PRES   REMARKS
PATUXENT RIVER PTCLDY    59  57  93 NW9       29.96S
ST INIGOES     MOCLDY    57  55  93 CALM      29.95S
LEONARDTOWN*     N/A     57  55  94 CALM      29.98S

$$

MDZ003>005-181000-
NORTH CENTRAL MARYLAND

CITY           SKY/WX    TMP DP  RH WIND       PRES   REMARKS
FREDERICK*     FOG       50  45  81 CALM      30.02S VSB 3/4
HAGERSTOWN APT CLEAR     56  48  74 NW3       30.01R
WESTMINSTER*   CLEAR     54  50  87 CALM      30.00R

$$

MDZ501>502-181000-
WESTERN MARYLAND

CITY           SKY/WX    TMP DP  RH WIND       PRES   REMARKS
OAKLAND*       CLEAR     52 N/A N/A CALM      30.06S
CUMBERLAND*    CLEAR     50  50 100 CALM      30.07R

$$

VAZ025>031-181000-
SHENANDOAH VALLEY

CITY           SKY/WX    TMP DP  RH WIND       PRES   REMARKS
WINCHESTER*    CLEAR     55  50  82 NW3       30.01R
FRONT ROYAL*   NOT AVBL
LURAY*         NOT AVBL
NEW MARKET*    NOT AVBL
STAUNTON*        N/A     51  50  95 CALM      30.05R FOG
WAYNESBORO*    FAIR      57  54  87 CALM      30.03R

$$

WVZ021-048>050-054>055-181000-
EASTERN WEST VIRGINIA PANHANDLE

CITY           SKY/WX    TMP DP  RH WIND       PRES   REMARKS
MARTINSBURG    NOT AVBL
PETERSBURG*    CLEAR     43  40  89 CALM      30.05S FOG

$$

VAZ036>039-050-181000-
CENTRAL FOOTHILLS

CITY           SKY/WX    TMP DP  RH WIND       PRES   REMARKS
CHARLOTTESVILL FOG       57  56  96 W5        30.00R VSB 1/2
CULPEPER*      CLEAR     57  57 100 CALM      29.99S
ORANGE*        FOG       55  55 100 CALM      30.01R VSB 1
GORDONSVILLE*  FAIR      53  53  97 CALM      29.99R
WARRENTON*     FOG       53  53 100 CALM      29.98S VSB 1/2

$$

VAZ055>057-181000-
NORTH AND CENTRAL PIEDMONT

CITY           SKY/WX    TMP DP  RH WIND       PRES   REMARKS
FREDERICKSBRG* PTCLDY    59  59 100 CALM      29.97R FOG
STAFFORD*      PTCLDY    57  32  39 N5        30.01S

$$

NCZ024-NYZ072-PAZ021-071-VAZ022-071-181000-
OTHER REGIONAL OBSERVATIONS

CITY           SKY/WX    TMP DP  RH WIND       PRES   REMARKS
NEW YORK CITY  CLEAR     60  44  55 CALM      29.99S
PHILADELPHIA   PTCLDY    56  52  86 E3        29.98S
PITTSBURGH     PTCLDY    49  44  83 CALM      30.03R
ROANOKE        CLEAR     54  53  97 CALM      30.03R
RICHMOND       CLOUDY    63  61  93 NW3       29.96S
RALEIGH        CLOUDY    62  60  93 CALM      29.98R FOG

$$

ANZ530>537-181000-
MARINE OBSERVATIONS

STATION/POSITION TIME  TEMP    WIND        PRES
                       AIR SEA DIR/SP/G
                 (UTC) (F)     (DEG/KT/KT) (MB)
THOMAS PT LIGHT  0900   59 53   CALM  /  1 1015.5R
BALT KEY BRIDGE  0800   62     290/  5/  5 1014.8F
COVE POINT       0800   56     340/  7/  8 1014.3F
LEWISETTA        0800   62 59              1014.0F
SOLOMONS ISLAND  0800      55                N/A
PINEY POINT      0806          340/  5/  5   N/A

$$



USA.gov is the U.S. government's official web portal to all federal, state and local government web resources and services.